Weather Roundup
Issued by NWS

Home | Current Version | Previous Version | Text Only | Print | Product List | Glossary On
Versions: 1 2 3 4 5 6 7 8 9 10 11 12 13 14 15 16 17 18 19 20 21 22 23 24 25 26 27 28 29 30 31 32 33 34 35 36 37 38 39 40 41 42 43 44 45 46 47 48 49 50
000
NZUS93 KARX 282310
HRRWXR

CURRENT HOURLY OBSERVATIONS ACROSS
MUCH OF THE UPPER MISSISSIPPI VALLEY
NATIONAL WEATHER SERVICE LA CROSSE WI
600 PM CDT THU AUG 28 2014


...SOUTHEAST MINNESOTA...


CITY           SKY/WX    TMP DP  RH WIND       PRES   REMARKS
ROCHESTER      RAIN      65  63  93 E14       29.97F FOG
ROCHESTER/MAYO CLOUDY    64  63  97 E7        29.97F
WINONA         RAIN      70  68  94 SE7       29.99S
AUSTIN         DRIZZLE   64  63  94 E3        29.94F
ALBERT LEA     DRIZZLE   64  64 100 NE7       29.95F
DODGE CENTER   HVY RAIN  64  63  94 E10       29.97S
PRESTON        HVY RAIN  64  64 100 CALM      29.98S
OWATONNA       LGT RAIN  66  63  88 E8        29.96S
FARIBAULT      HVY RAIN  68  63  83 E9        29.96S
$$

...ELSEWHERE IN MINNESOTA...


CITY           SKY/WX    TMP DP  RH WIND       PRES   REMARKS
MINNEAPOLIS    CLOUDY    69  65  86 SE13      29.96F
INTNL FALLS    CLOUDY    70  59  68 S5        29.95F
DULUTH         CLOUDY    65  55  70 E9        30.01F
RED WING       DRIZZLE   66  64  94 E5        29.97S
REDWOOD FALLS  LGT RAIN  67  67 100 E9        29.90S FOG
MANKATO        CLOUDY    66  63  88 E13       29.93F
WORTHINGTON    CLOUDY    68  66  94 SE8       29.91S
FAIRMONT       CLOUDY    64  61  88 E9        29.91F
$$

...SOUTHWEST WISCONSIN...


CITY           SKY/WX    TMP DP  RH WIND       PRES   REMARKS
LA CROSSE      RAIN      68  65  90 SE6       29.99S FOG
PRAIRIE DU CHI CLOUDY    72  61  68 E7        29.98F
BOSCOBEL       CLOUDY    74  63  68 SE6       30.00F
LONE ROCK      PTSUNNY   76  63  64 E8        30.02R
PLATTEVILLE    PTSUNNY   73  64  73 SE14      30.02F
FORT MC COY    DRIZZLE   67  65  91 E6        30.02S
CAMP DOUGLAS   LGT RAIN  68  68 100 SE7       30.02F
VIROQUA        CLOUDY    66  66 100 E7        30.02S
WIS DELLS      CLOUDY    70  60  69 E7        30.04S
$$

...ELSEWHERE IN WISCONSIN...


CITY           SKY/WX    TMP DP  RH WIND       PRES   REMARKS
MILWAUKEE      PTSUNNY   66  56  70 E8        30.08F
MADISON        CLOUDY    71  57  61 SE14      30.05S
GREEN BAY      CLOUDY    66  56  70 SE8       30.08F
EAU CLAIRE     LGT RAIN  68  65  90 E7        30.00F
BLACK RVR FLS  DRIZZLE   68  68  99 E3        30.00F
MEDFORD        RAIN      64  62  93 CALM      30.05S
WAUSAU         LGT RAIN  66  62  87 E7        30.05F
WIS RAPIDS     LGT RAIN  68  64  87 SE5       30.06S
MARSHFIELD     LGT RAIN  68  64  87 E7        30.04F
RICE LAKE      CLOUDY    68  61  77 SE9       30.03S
$$

...NORTHEAST IOWA...


CITY           SKY/WX    TMP DP  RH WIND       PRES   REMARKS
WATERLOO       CLOUDY    72  67  84 SE12      29.94F
DUBUQUE        CLOUDY    70  65  84 SE12G20   30.01F
DECORAH        CLOUDY    66  64  94 SE7G14    29.97F
MASON CITY     LGT RAIN  69  68  96 SE8       29.95S FOG
CHARLES CITY   CLOUDY    70  68  94 SE12      29.95F
OELWEIN        CLOUDY    70  66  88 SE14      29.98S
$$

...ELSEWHERE IN IOWA...


CITY           SKY/WX    TMP DP  RH WIND       PRES   REMARKS
DES MOINES     PTSUNNY   80  72  76 SE9       29.90F
IOWA CITY      CLOUDY    71  69  93 SE7       29.97F
FORT DODGE     CLOUDY    73  70  88 S5        29.92R
MARSHALLTOWN   PTSUNNY   73  69  87 SE10      29.93F
CEDAR RAPIDS   PTSUNNY   73  70  90 SE9       29.95F
$$

...NORTHERN ILLINOIS...


CITY           SKY/WX    TMP DP  RH WIND       PRES   REMARKS
CHICAGO-OHARE  CLOUDY    72  58  61 NE9       30.06S
DUPAGE         PTSUNNY   73  59  61 NE10      30.06R
CHICAGO-MIDWAY PTSUNNY   74  62  66 E9        30.06R
MOLINE         LGT RAIN  69  66  90 SE13      29.99F
ROCKFORD       LGT RAIN  69  60  73 E9        30.05F
STERLING       CLOUDY    68  66  94 SE5       30.05F
PEORIA         CLOUDY    81  70  69 E7        29.99S
$$

NOTE: "FAIR" INDICATES FEW OR NO CLOUDS BELOW 12,000 FEET WITH NO
SIGNIFICANT WEATHER AND/OR OBSTRUCTIONS TO VISIBILITY. WIND
SPEEDS ARE IN MILES-PER-HOUR.



USA.gov is the U.S. government's official web portal to all federal, state and local government web resources and services.